Year,Month,Day,Hour,Minute,Value (Times are PST for temperature in C)
2008,08,03,00,00,12.70
2008,08,03,00,01,12.60
2008,08,03,00,02,12.60
2008,08,03,00,03,12.60
2008,08,03,00,04,12.60
2008,08,03,00,05,12.60
2008,08,03,00,06,12.60
2008,08,03,00,07,12.60
2008,08,03,00,08,12.60
2008,08,03,00,09,12.60
2008,08,03,00,10,12.60
2008,08,03,00,11,12.60
2008,08,03,00,12,12.50
2008,08,03,01,02,12.00
2008,08,03,01,03,12.00
2008,08,03,01,04,12.00
2008,08,03,01,05,12.00
2008,08,03,01,06,12.00
2008,08,03,01,07,11.90
2008,08,03,01,08,11.90
2008,08,03,01,09,11.90
2008,08,03,01,10,11.90
2008,08,03,01,11,11.90
2008,08,03,01,12,11.90
2008,08,03,01,13,11.90
2008,08,03,01,14,11.90
2008,08,03,01,15,11.90
2008,08,03,01,16,11.80
2008,08,03,01,17,11.80
2008,08,03,01,18,11.80
2008,08,03,01,19,11.80
2008,08,03,01,20,11.80
2008,08,03,01,21,11.80
2008,08,03,01,22,11.80
2008,08,03,01,23,11.80
2008,08,03,01,24,11.80
2008,08,03,01,25,11.80
2008,08,03,01,26,11.80
2008,08,03,01,27,11.80
2008,08,03,01,28,11.70
2008,08,03,01,29,11.70
2008,08,03,01,30,11.70
2008,08,03,01,31,11.80
2008,08,03,01,32,11.80
2008,08,03,01,33,11.80
2008,08,03,01,34,11.80
2008,08,03,01,35,11.70
2008,08,03,01,36,11.70
2008,08,03,01,37,11.70
2008,08,03,01,38,11.70
2008,08,03,01,39,11.70
2008,08,03,01,40,11.70
2008,08,03,01,41,11.70
2008,08,03,01,42,11.70
2008,08,03,01,43,11.60
2008,08,03,01,44,11.60
2008,08,03,01,45,11.60
2008,08,03,01,46,11.60
2008,08,03,01,47,11.60
2008,08,03,01,48,11.60
2008,08,03,01,49,11.60
2008,08,03,01,50,11.60
2008,08,03,01,51,11.60
2008,08,03,01,52,11.60
2008,08,03,01,53,11.60
2008,08,03,01,54,11.60
2008,08,03,01,55,11.60
2008,08,03,01,56,11.60
2008,08,03,01,57,11.60
2008,08,03,01,58,11.60
2008,08,03,01,59,11.60
2008,08,03,02,00,11.60
2008,08,03,02,01,11.60
2008,08,03,02,02,11.60
2008,08,03,02,03,11.60
2008,08,03,02,04,11.60
2008,08,03,02,05,11.60
2008,08,03,02,06,11.60
2008,08,03,02,07,11.60
2008,08,03,02,08,11.60
2008,08,03,02,09,11.60
2008,08,03,02,10,11.70
2008,08,03,02,11,11.70
2008,08,03,02,12,11.70
2008,08,03,02,13,11.80
2008,08,03,02,14,11.80
2008,08,03,02,15,11.80
2008,08,03,02,16,11.80
2008,08,03,02,17,11.80
2008,08,03,02,18,11.80
2008,08,03,02,19,11.80
2008,08,03,02,20,11.80
2008,08,03,02,21,11.80
2008,08,03,02,22,11.80
2008,08,03,02,23,11.80
2008,08,03,02,24,11.80
2008,08,03,02,25,11.80
2008,08,03,02,26,11.80
2008,08,03,02,27,11.80
2008,08,03,02,28,11.80
2008,08,03,02,29,11.80
2008,08,03,02,30,11.80
2008,08,03,02,31,11.70
2008,08,03,02,32,11.70
2008,08,03,02,33,11.70
2008,08,03,02,34,11.70
2008,08,03,02,35,11.70
2008,08,03,02,36,11.60
2008,08,03,02,37,11.60
2008,08,03,02,38,11.60
2008,08,03,02,39,11.60
2008,08,03,02,40,11.60
2008,08,03,02,41,11.60
2008,08,03,02,42,11.60
2008,08,03,02,43,11.60
2008,08,03,02,44,11.60
2008,08,03,02,45,11.60
2008,08,03,02,46,11.60
2008,08,03,02,47,11.40
2008,08,03,02,48,11.40
2008,08,03,02,49,11.40
2008,08,03,02,50,11.40
2008,08,03,02,51,11.40
2008,08,03,02,52,11.40
2008,08,03,02,53,11.40
2008,08,03,02,54,11.40
2008,08,03,02,55,11.40
2008,08,03,02,56,11.40
2008,08,03,02,57,11.30
2008,08,03,02,58,11.30
2008,08,03,02,59,11.30
2008,08,03,03,00,11.30
2008,08,03,03,01,11.30
2008,08,03,03,02,11.30
2008,08,03,03,03,11.30
2008,08,03,03,04,11.30
2008,08,03,03,05,11.20
2008,08,03,03,06,11.20
2008,08,03,03,07,11.20
2008,08,03,03,08,11.20
2008,08,03,03,09,11.20
2008,08,03,03,10,11.20
2008,08,03,03,11,11.20
2008,08,03,03,12,11.20
2008,08,03,03,13,11.10
2008,08,03,03,14,11.10
2008,08,03,03,15,11.10
2008,08,03,03,16,11.10
2008,08,03,03,17,11.10
2008,08,03,03,18,11.10
2008,08,03,03,19,11.10
2008,08,03,03,20,11.10
2008,08,03,03,21,11.10
2008,08,03,03,22,11.10
2008,08,03,03,23,11.00
2008,08,03,03,24,10.90
2008,08,03,03,25,10.90
2008,08,03,03,26,10.90
2008,08,03,03,27,10.90
2008,08,03,03,28,10.90
2008,08,03,03,29,10.90
2008,08,03,03,30,10.90
2008,08,03,03,31,10.90
2008,08,03,03,32,10.90
2008,08,03,03,33,10.90
2008,08,03,03,34,10.90
2008,08,03,03,35,10.90
2008,08,03,03,36,10.90
2008,08,03,03,37,10.90
2008,08,03,03,38,10.90
2008,08,03,03,39,10.90
2008,08,03,03,40,10.90
2008,08,03,03,41,10.90
2008,08,03,03,42,10.90
2008,08,03,03,43,10.90
2008,08,03,03,44,10.80
2008,08,03,03,45,10.80
2008,08,03,03,46,10.80
2008,08,03,03,47,10.80
2008,08,03,03,48,10.80
2008,08,03,03,49,10.80
2008,08,03,03,50,10.80
2008,08,03,03,51,10.70
2008,08,03,03,52,10.70
2008,08,03,03,53,10.70
2008,08,03,03,54,10.70
2008,08,03,03,55,10.70
2008,08,03,03,56,10.70
2008,08,03,03,57,10.70
2008,08,03,03,58,10.70
2008,08,03,03,59,10.70
2008,08,03,04,00,10.70
2008,08,03,04,01,10.70
2008,08,03,04,02,10.70
2008,08,03,04,03,10.70
2008,08,03,04,04,10.70
2008,08,03,04,05,10.70
2008,08,03,04,06,10.70
2008,08,03,04,07,10.70
2008,08,03,04,08,10.70
2008,08,03,04,09,10.70
2008,08,03,04,10,10.70
2008,08,03,04,11,10.70
2008,08,03,04,12,10.70
2008,08,03,04,13,10.70
2008,08,03,04,14,10.70
2008,08,03,04,15,10.70
2008,08,03,04,16,10.70
2008,08,03,04,17,10.70
2008,08,03,04,18,10.70
2008,08,03,04,19,10.70
2008,08,03,04,20,10.70
2008,08,03,04,21,10.70
2008,08,03,04,22,10.80
2008,08,03,04,23,10.80
2008,08,03,04,24,10.80
2008,08,03,04,25,10.80
2008,08,03,04,26,10.80
2008,08,03,04,27,10.90
2008,08,03,04,28,10.90
2008,08,03,04,29,10.90
2008,08,03,04,30,10.90
2008,08,03,04,31,10.90
2008,08,03,04,32,10.90
2008,08,03,04,33,10.90
2008,08,03,04,34,10.90
2008,08,03,04,35,10.90
2008,08,03,04,36,10.90
2008,08,03,04,37,10.90
2008,08,03,04,38,10.90
2008,08,03,04,39,10.90
2008,08,03,04,40,10.90
2008,08,03,04,41,10.90
2008,08,03,04,42,10.90
2008,08,03,04,43,10.90
2008,08,03,04,44,10.90
2008,08,03,04,45,10.90
2008,08,03,04,46,10.90
2008,08,03,04,47,10.90
2008,08,03,04,48,10.80
2008,08,03,04,49,10.80
2008,08,03,04,50,10.80
2008,08,03,04,51,10.80
2008,08,03,04,52,10.80
2008,08,03,04,53,10.70
2008,08,03,04,54,10.70
2008,08,03,04,55,10.70
2008,08,03,04,56,10.70
2008,08,03,04,57,10.70
2008,08,03,04,58,10.70
2008,08,03,04,59,10.70
2008,08,03,05,00,10.70
2008,08,03,05,01,10.70
2008,08,03,05,02,10.70
2008,08,03,05,03,10.70
2008,08,03,05,04,10.70
2008,08,03,05,05,10.70
2008,08,03,05,06,10.70
2008,08,03,05,07,10.80
2008,08,03,05,08,10.80
2008,08,03,05,09,10.80
2008,08,03,05,10,10.80
2008,08,03,05,11,10.80
2008,08,03,05,12,10.80
2008,08,03,05,13,10.80
2008,08,03,05,14,10.80
2008,08,03,05,15,10.80
2008,08,03,05,16,10.80
2008,08,03,05,17,10.70
2008,08,03,05,18,10.70
2008,08,03,05,19,10.70
2008,08,03,05,20,10.70
2008,08,03,05,21,10.70
2008,08,03,05,22,10.70
2008,08,03,05,23,10.60
2008,08,03,05,24,10.60
2008,08,03,05,25,10.60
2008,08,03,05,26,10.60
2008,08,03,05,27,10.60
2008,08,03,05,28,10.60
2008,08,03,05,29,10.60
2008,08,03,05,30,10.60
2008,08,03,05,31,10.60
2008,08,03,05,32,10.60
2008,08,03,05,33,10.60
2008,08,03,05,34,10.50
2008,08,03,05,35,10.40
2008,08,03,05,36,10.40
2008,08,03,05,37,10.40
2008,08,03,05,38,10.40
2008,08,03,05,39,10.40
2008,08,03,05,40,10.40
2008,08,03,05,41,10.40
2008,08,03,05,42,10.40
2008,08,03,05,43,10.40
2008,08,03,05,44,10.50
2008,08,03,05,45,10.60
2008,08,03,05,46,10.60
2008,08,03,05,47,10.60
2008,08,03,05,48,10.60
2008,08,03,05,49,10.60
2008,08,03,05,50,10.60
2008,08,03,05,51,10.70
2008,08,03,05,52,10.70
2008,08,03,05,53,10.70
2008,08,03,05,54,10.70
2008,08,03,05,55,10.70
2008,08,03,05,56,10.70
2008,08,03,05,57,10.70
2008,08,03,05,58,10.70
2008,08,03,05,59,10.70
2008,08,03,06,00,10.70
2008,08,03,06,01,10.70
2008,08,03,06,02,10.70
2008,08,03,06,03,10.70
2008,08,03,06,04,10.70
2008,08,03,06,05,10.70
2008,08,03,06,06,10.70
2008,08,03,06,07,10.70
2008,08,03,06,08,10.60
2008,08,03,06,09,10.60
2008,08,03,06,10,10.60
2008,08,03,06,11,10.60
2008,08,03,06,12,10.60
2008,08,03,06,13,10.60
2008,08,03,06,14,10.60
2008,08,03,06,15,10.60
2008,08,03,06,16,10.60
2008,08,03,06,17,10.60
2008,08,03,06,18,10.60
2008,08,03,06,19,10.60
2008,08,03,06,20,10.60
2008,08,03,06,21,10.60
2008,08,03,06,22,10.60
2008,08,03,06,23,10.60
2008,08,03,06,24,10.60
2008,08,03,06,25,10.60
2008,08,03,06,26,10.60
2008,08,03,06,27,10.60
2008,08,03,06,28,10.60
2008,08,03,06,29,10.60
2008,08,03,06,30,10.60
2008,08,03,06,31,10.60
2008,08,03,06,32,10.70
2008,08,03,06,33,10.70
2008,08,03,06,34,10.80
2008,08,03,06,35,10.90
2008,08,03,06,36,10.90
2008,08,03,06,37,10.90
2008,08,03,06,38,10.90
2008,08,03,06,39,11.00
2008,08,03,06,40,11.10
2008,08,03,06,41,11.10
2008,08,03,06,42,11.10
2008,08,03,06,43,11.10
2008,08,03,06,44,11.10
2008,08,03,06,45,11.10
2008,08,03,06,46,11.20
2008,08,03,06,47,11.20
2008,08,03,06,48,11.20
2008,08,03,06,49,11.20
2008,08,03,06,50,11.30
2008,08,03,06,51,11.30
2008,08,03,06,52,11.40
2008,08,03,06,53,11.40
2008,08,03,06,54,11.40
2008,08,03,06,55,11.60
2008,08,03,06,56,11.60
2008,08,03,06,57,11.60
2008,08,03,06,58,11.70
2008,08,03,06,59,11.70
2008,08,03,07,00,11.80
2008,08,03,07,01,11.80
2008,08,03,07,02,11.80
2008,08,03,07,03,11.80
2008,08,03,07,04,11.90
2008,08,03,07,05,11.90
2008,08,03,07,06,12.00
2008,08,03,07,07,12.10
2008,08,03,07,08,12.10
2008,08,03,07,09,12.20
2008,08,03,07,10,12.20
2008,08,03,07,11,12.30
2008,08,03,07,12,12.30
2008,08,03,07,13,12.40
2008,08,03,07,14,12.40
2008,08,03,07,15,12.50
2008,08,03,07,16,12.50
2008,08,03,07,17,12.60
2008,08,03,07,18,12.60
2008,08,03,07,19,12.70
2008,08,03,07,20,12.80
2008,08,03,07,21,12.90
2008,08,03,07,22,13.00
2008,08,03,07,23,13.10
2008,08,03,07,24,13.20
2008,08,03,07,25,13.30
2008,08,03,07,26,13.30
2008,08,03,07,27,13.40
2008,08,03,07,28,13.50
2008,08,03,07,29,13.60
2008,08,03,07,30,13.70
2008,08,03,07,31,13.70
2008,08,03,07,32,13.70
2008,08,03,07,33,13.80
2008,08,03,07,34,13.90
2008,08,03,07,35,13.90
2008,08,03,07,36,13.90
2008,08,03,07,37,13.90
2008,08,03,07,38,14.00
2008,08,03,07,39,14.00
2008,08,03,07,40,14.00
2008,08,03,07,41,14.00
2008,08,03,07,42,14.10
2008,08,03,07,43,14.10
2008,08,03,07,44,14.10
2008,08,03,07,45,14.10
2008,08,03,07,46,14.20
2008,08,03,07,47,14.20
2008,08,03,07,48,14.20
2008,08,03,07,49,14.20
2008,08,03,07,50,14.20
2008,08,03,07,51,14.30
2008,08,03,07,52,14.30
2008,08,03,07,53,14.30
2008,08,03,07,54,14.30
2008,08,03,07,55,14.30
2008,08,03,07,56,14.30
2008,08,03,07,57,14.40
2008,08,03,07,58,14.40
2008,08,03,07,59,14.40
2008,08,03,08,00,14.50
2008,08,03,08,01,14.50
2008,08,03,08,02,14.50
2008,08,03,08,03,14.50
2008,08,03,08,04,14.60
2008,08,03,08,05,14.60
2008,08,03,08,06,14.60
2008,08,03,08,07,14.60
2008,08,03,08,08,14.60
2008,08,03,08,09,14.70
2008,08,03,08,10,14.70
2008,08,03,08,11,14.70
2008,08,03,08,12,14.70
2008,08,03,08,13,14.70
2008,08,03,08,14,14.70
2008,08,03,08,15,14.80
2008,08,03,08,16,14.80
2008,08,03,08,17,14.80
2008,08,03,08,18,14.80
2008,08,03,08,19,14.80
2008,08,03,08,20,14.80
2008,08,03,08,21,14.80
2008,08,03,08,22,14.80
2008,08,03,08,23,14.80
2008,08,03,08,24,14.80
2008,08,03,08,25,14.80
2008,08,03,08,26,14.80
2008,08,03,08,27,14.80
2008,08,03,08,28,14.80
2008,08,03,08,29,14.80
2008,08,03,08,30,14.80
2008,08,03,08,31,14.80
2008,08,03,08,32,14.80
2008,08,03,08,33,14.90
2008,08,03,08,34,14.90
2008,08,03,08,35,14.90
2008,08,03,08,36,14.90
2008,08,03,08,37,14.90
2008,08,03,08,38,14.90
2008,08,03,08,39,14.90
2008,08,03,08,40,14.90
2008,08,03,08,41,14.90
2008,08,03,08,42,14.90
2008,08,03,08,43,14.90
2008,08,03,08,44,15.00
2008,08,03,08,45,15.00
2008,08,03,08,46,15.10
2008,08,03,08,47,15.10
2008,08,03,08,48,15.10
2008,08,03,08,49,15.10
2008,08,03,08,50,15.10
2008,08,03,08,51,15.10
2008,08,03,08,52,15.10
2008,08,03,08,53,15.10
2008,08,03,08,54,15.10
2008,08,03,08,55,15.10
2008,08,03,08,56,15.10
2008,08,03,08,57,15.20
2008,08,03,08,58,15.20
2008,08,03,08,59,15.20
2008,08,03,09,00,15.20
2008,08,03,09,01,15.30
2008,08,03,09,02,15.30
2008,08,03,09,03,15.30
2008,08,03,09,04,15.30
2008,08,03,09,05,15.30
2008,08,03,09,06,15.40
2008,08,03,09,07,15.40
2008,08,03,09,08,15.40
2008,08,03,09,09,15.40
2008,08,03,09,10,15.50
2008,08,03,09,11,15.50
2008,08,03,09,12,15.50
2008,08,03,09,13,15.50
2008,08,03,09,14,15.50
2008,08,03,09,15,15.50
2008,08,03,09,16,15.50
2008,08,03,09,17,15.50
2008,08,03,09,18,15.50
2008,08,03,09,19,15.50
2008,08,03,09,20,15.50
2008,08,03,09,21,15.50
2008,08,03,09,22,15.60
2008,08,03,09,23,15.60
2008,08,03,09,24,15.60
2008,08,03,09,25,15.60
2008,08,03,09,26,15.60
2008,08,03,09,27,15.60
2008,08,03,09,28,15.60
2008,08,03,09,29,15.50
2008,08,03,09,30,15.50
2008,08,03,09,31,15.60
2008,08,03,09,32,15.60
2008,08,03,09,33,15.60
2008,08,03,09,34,15.50
2008,08,03,09,35,15.50
2008,08,03,09,36,15.50
2008,08,03,09,37,15.40
2008,08,03,09,38,15.40
2008,08,03,09,39,15.40
2008,08,03,09,40,15.40
2008,08,03,09,41,15.50
2008,08,03,09,42,15.50
2008,08,03,09,43,15.50
2008,08,03,09,44,15.50
2008,08,03,09,45,15.50
2008,08,03,09,46,15.50
2008,08,03,09,47,15.50
2008,08,03,09,48,15.50
2008,08,03,09,49,15.50
2008,08,03,09,50,15.60
2008,08,03,09,51,15.60
2008,08,03,09,52,15.60
2008,08,03,09,53,15.60
2008,08,03,09,54,15.60
2008,08,03,09,55,15.70
2008,08,03,09,56,15.80
2008,08,03,09,57,15.80
2008,08,03,09,58,15.90
2008,08,03,09,59,15.90
2008,08,03,10,00,16.10
2008,08,03,10,01,16.10
2008,08,03,10,02,16.10
2008,08,03,10,03,16.10
2008,08,03,10,04,16.10
2008,08,03,10,05,16.20
2008,08,03,10,06,16.20
2008,08,03,10,07,16.30
2008,08,03,10,08,16.40
2008,08,03,10,09,16.40
2008,08,03,10,10,16.40
2008,08,03,10,11,16.40
2008,08,03,10,12,16.40
2008,08,03,10,13,16.40
2008,08,03,10,14,16.40
2008,08,03,10,15,16.40
2008,08,03,10,16,16.40
2008,08,03,10,17,16.40
2008,08,03,10,18,16.40
2008,08,03,10,19,16.40
2008,08,03,10,20,16.40
2008,08,03,10,21,16.40
2008,08,03,10,22,16.50
2008,08,03,10,23,16.60
2008,08,03,10,24,16.60
2008,08,03,10,25,16.70
2008,08,03,10,26,16.70
2008,08,03,10,27,16.70
2008,08,03,10,28,16.80
2008,08,03,10,29,16.80
2008,08,03,10,30,16.80
2008,08,03,10,31,16.80
2008,08,03,10,32,16.90
2008,08,03,10,33,16.90
2008,08,03,10,34,16.90
2008,08,03,10,35,16.90
2008,08,03,10,36,17.00
2008,08,03,10,37,17.00
2008,08,03,10,38,17.10
2008,08,03,10,39,17.20
2008,08,03,10,40,17.20
2008,08,03,10,41,17.10
2008,08,03,10,42,17.20
2008,08,03,10,43,17.20
2008,08,03,10,44,17.20
2008,08,03,10,45,17.20
2008,08,03,10,46,17.10
2008,08,03,10,47,17.10
2008,08,03,10,48,17.10
2008,08,03,10,49,17.20
2008,08,03,10,50,17.20
2008,08,03,10,51,17.10
2008,08,03,10,52,17.10
2008,08,03,10,53,17.00
2008,08,03,10,54,17.10
2008,08,03,10,55,17.00
2008,08,03,10,56,17.10
2008,08,03,10,57,17.10
2008,08,03,10,58,17.20
2008,08,03,10,59,17.20
2008,08,03,11,00,17.20
2008,08,03,11,01,17.20
2008,08,03,11,02,17.20
2008,08,03,11,03,17.20
2008,08,03,11,04,17.10
2008,08,03,11,05,17.00
2008,08,03,11,06,17.00
2008,08,03,11,07,17.00
2008,08,03,11,08,17.10
2008,08,03,11,09,17.20
2008,08,03,11,10,17.20
2008,08,03,11,11,17.30
2008,08,03,11,12,17.40
2008,08,03,11,13,17.50
2008,08,03,11,14,17.50
2008,08,03,11,15,17.50
2008,08,03,11,16,17.50
2008,08,03,11,17,17.50
2008,08,03,11,18,17.50
2008,08,03,11,19,17.50
2008,08,03,11,20,17.40
2008,08,03,11,21,17.40
2008,08,03,11,22,17.50
2008,08,03,11,23,17.50
2008,08,03,11,24,17.40
2008,08,03,11,25,17.30
2008,08,03,11,26,17.30
2008,08,03,11,27,17.30
2008,08,03,11,28,17.30
2008,08,03,11,29,17.40
2008,08,03,11,30,17.40
2008,08,03,11,31,17.50
2008,08,03,11,32,17.50
2008,08,03,11,33,17.50
2008,08,03,11,34,17.50
2008,08,03,11,35,17.40
2008,08,03,11,36,17.40
2008,08,03,11,37,17.30
2008,08,03,11,38,17.30
2008,08,03,11,39,17.30
2008,08,03,11,40,17.30
2008,08,03,11,41,17.30
2008,08,03,11,42,17.40
2008,08,03,11,43,17.50
2008,08,03,11,44,17.50
2008,08,03,11,45,17.40
2008,08,03,11,46,17.30
2008,08,03,11,47,17.30
2008,08,03,11,48,17.40
2008,08,03,11,49,17.50
2008,08,03,11,50,17.50
2008,08,03,11,51,17.50
2008,08,03,11,52,17.50
2008,08,03,11,53,17.50
2008,08,03,11,54,17.60
2008,08,03,11,55,17.60
2008,08,03,11,56,17.70
2008,08,03,11,57,17.70
2008,08,03,11,58,17.80
2008,08,03,11,59,17.80
2008,08,03,12,00,17.90
2008,08,03,12,01,17.90
2008,08,03,12,02,17.90
2008,08,03,12,03,17.90
2008,08,03,12,04,17.90
2008,08,03,12,05,17.90
2008,08,03,12,06,17.90
2008,08,03,12,07,17.90
2008,08,03,12,08,17.90
2008,08,03,12,09,17.90
2008,08,03,12,10,17.90
2008,08,03,12,11,17.80
2008,08,03,12,12,17.80
2008,08,03,12,13,17.80
2008,08,03,12,14,17.80
2008,08,03,12,15,17.90
2008,08,03,12,16,17.90
2008,08,03,12,17,17.90
2008,08,03,12,18,17.90
2008,08,03,12,19,17.90
2008,08,03,12,20,17.90
2008,08,03,12,21,18.10
2008,08,03,12,22,18.10
2008,08,03,12,23,18.20
2008,08,03,12,24,18.20
2008,08,03,12,25,18.20
2008,08,03,12,26,18.30
2008,08,03,12,27,18.40
2008,08,03,12,28,18.40
2008,08,03,12,29,18.50
2008,08,03,12,30,18.40
2008,08,03,12,31,18.40
2008,08,03,12,32,18.30
2008,08,03,12,33,18.20
2008,08,03,12,34,18.20
2008,08,03,12,35,18.40
2008,08,03,12,36,18.50
2008,08,03,12,37,18.50
2008,08,03,12,38,18.60
2008,08,03,12,39,18.60
2008,08,03,12,40,18.60
2008,08,03,12,41,18.50
2008,08,03,12,42,18.50
2008,08,03,12,43,18.50
2008,08,03,12,44,18.50
2008,08,03,12,45,18.60
2008,08,03,12,46,18.60
2008,08,03,12,47,18.70
2008,08,03,12,48,18.70
2008,08,03,12,49,18.70
2008,08,03,12,50,18.70
2008,08,03,12,51,18.80
2008,08,03,12,52,18.90
2008,08,03,12,53,18.90
2008,08,03,12,54,19.10
2008,08,03,12,55,19.10
2008,08,03,12,56,19.10
2008,08,03,12,57,19.10
2008,08,03,12,58,19.10
2008,08,03,12,59,19.20
2008,08,03,13,00,19.30
2008,08,03,13,01,19.40
2008,08,03,13,02,19.40
2008,08,03,13,03,19.30
2008,08,03,13,04,19.30
2008,08,03,13,05,19.10
2008,08,03,13,06,19.10
2008,08,03,13,07,19.10
2008,08,03,13,08,19.10
2008,08,03,13,09,19.20
2008,08,03,13,10,19.30
2008,08,03,13,11,19.40
2008,08,03,13,12,19.60
2008,08,03,13,13,19.70
2008,08,03,13,14,19.80
2008,08,03,13,15,19.80
2008,08,03,13,16,19.90
2008,08,03,13,17,19.90
2008,08,03,13,18,20.10
2008,08,03,13,19,20.10
2008,08,03,13,20,20.20
2008,08,03,13,21,20.20
2008,08,03,13,22,20.20
2008,08,03,13,23,20.10
2008,08,03,13,24,19.90
2008,08,03,13,25,19.90
2008,08,03,13,26,19.70
2008,08,03,13,27,19.70
2008,08,03,13,28,19.60
2008,08,03,13,29,19.50
2008,08,03,13,30,19.50
2008,08,03,13,31,19.50
2008,08,03,13,32,19.60
2008,08,03,13,33,19.60
2008,08,03,13,34,19.60
2008,08,03,13,35,19.60
2008,08,03,13,36,19.60
2008,08,03,13,37,19.70
2008,08,03,13,38,19.70
2008,08,03,13,39,19.50
2008,08,03,13,40,19.40
2008,08,03,13,41,19.40
2008,08,03,13,42,19.30
2008,08,03,13,43,19.30
2008,08,03,13,44,19.30
2008,08,03,13,45,19.40
2008,08,03,13,46,19.50
2008,08,03,13,47,19.60
2008,08,03,13,48,19.60
2008,08,03,13,49,19.60
2008,08,03,13,50,19.70
2008,08,03,13,51,19.80
2008,08,03,13,52,19.90
2008,08,03,13,53,19.90
2008,08,03,13,54,20.10
2008,08,03,13,55,20.10
2008,08,03,13,56,20.10
2008,08,03,13,57,20.00
2008,08,03,13,58,19.80
2008,08,03,13,59,19.70
2008,08,03,14,00,19.70
2008,08,03,14,01,19.70
2008,08,03,14,02,19.70
2008,08,03,14,03,19.60
2008,08,03,14,04,19.60
2008,08,03,14,05,19.40
2008,08,03,14,06,19.10
2008,08,03,14,07,19.00
2008,08,03,14,08,18.90
2008,08,03,14,09,18.90
2008,08,03,14,10,18.90
2008,08,03,14,11,18.90
2008,08,03,14,12,18.90
2008,08,03,14,13,19.00
2008,08,03,14,14,19.10
2008,08,03,14,15,19.30
2008,08,03,14,16,19.40
2008,08,03,14,17,19.60
2008,08,03,14,18,19.70
2008,08,03,14,19,19.70
2008,08,03,14,20,19.80
2008,08,03,14,21,19.80
2008,08,03,14,22,19.80
2008,08,03,14,23,19.90
2008,08,03,14,24,19.90
2008,08,03,14,25,19.90
2008,08,03,14,26,20.10
2008,08,03,14,27,20.10
2008,08,03,14,28,20.20
2008,08,03,14,29,20.20
2008,08,03,14,30,20.30
2008,08,03,14,31,20.30
2008,08,03,14,32,20.30
2008,08,03,14,33,20.30
2008,08,03,14,34,20.30
2008,08,03,14,35,20.20
2008,08,03,14,36,20.10
2008,08,03,14,37,20.00
2008,08,03,14,38,19.90
2008,08,03,14,39,19.90
2008,08,03,14,40,19.90
2008,08,03,14,41,20.00
2008,08,03,14,42,20.20
2008,08,03,14,43,20.30
2008,08,03,14,44,20.30
2008,08,03,14,45,20.20
2008,08,03,14,46,20.20
2008,08,03,14,47,20.10
2008,08,03,14,48,20.10
2008,08,03,14,49,20.10
2008,08,03,14,50,20.20
2008,08,03,14,51,20.20
2008,08,03,14,52,20.20
2008,08,03,14,53,20.30
2008,08,03,14,54,20.40
2008,08,03,14,55,20.60
2008,08,03,14,56,20.70
2008,08,03,14,57,20.80
2008,08,03,14,58,20.90
2008,08,03,14,59,21.00
2008,08,03,15,00,21.10
2008,08,03,15,01,21.20
2008,08,03,15,02,21.30
2008,08,03,15,03,21.40
2008,08,03,15,04,21.40
2008,08,03,15,05,21.40
2008,08,03,15,06,21.40
2008,08,03,15,07,21.30
2008,08,03,15,08,21.30
2008,08,03,15,09,21.10
2008,08,03,15,10,20.90
2008,08,03,15,11,20.70
2008,08,03,15,12,20.60
2008,08,03,15,13,20.50
2008,08,03,15,14,20.50
2008,08,03,15,15,20.40
2008,08,03,15,16,20.50
2008,08,03,15,17,20.60
2008,08,03,15,18,20.60
2008,08,03,15,19,20.70
2008,08,03,15,20,20.70
2008,08,03,15,21,20.80
2008,08,03,15,22,20.90
2008,08,03,15,23,20.90
2008,08,03,15,24,20.90
2008,08,03,15,25,20.90
2008,08,03,15,26,20.90
2008,08,03,15,27,20.90
2008,08,03,15,28,21.00
2008,08,03,15,29,21.10
2008,08,03,15,30,21.20
2008,08,03,15,31,21.30
2008,08,03,15,32,21.40
2008,08,03,15,33,21.40
2008,08,03,15,34,21.40
2008,08,03,15,35,21.40
2008,08,03,15,36,21.40
2008,08,03,15,37,21.50
2008,08,03,15,38,21.50
2008,08,03,15,39,21.40
2008,08,03,15,40,21.30
2008,08,03,15,41,21.40
2008,08,03,15,42,21.50
2008,08,03,15,43,21.70
2008,08,03,15,44,21.80
2008,08,03,15,45,21.90
2008,08,03,15,46,22.00
2008,08,03,15,47,22.00
2008,08,03,15,48,22.00
2008,08,03,15,49,22.00
2008,08,03,15,50,22.00
2008,08,03,15,51,21.90
2008,08,03,15,52,21.90
2008,08,03,15,53,22.00
2008,08,03,15,54,22.10
2008,08,03,15,55,22.10
2008,08,03,15,56,22.10
2008,08,03,15,57,22.20
2008,08,03,15,58,22.20
2008,08,03,15,59,22.20
2008,08,03,16,00,22.10
2008,08,03,16,01,22.10
2008,08,03,16,02,22.10
2008,08,03,16,03,22.10
2008,08,03,16,04,22.10
2008,08,03,16,05,22.10
2008,08,03,16,06,22.20
2008,08,03,16,07,22.20
2008,08,03,16,08,22.20
2008,08,03,16,09,22.10
2008,08,03,16,10,22.10
2008,08,03,16,11,22.10
2008,08,03,16,12,22.00
2008,08,03,16,13,22.00
2008,08,03,16,14,21.90
2008,08,03,16,15,21.90
2008,08,03,16,16,21.90
2008,08,03,16,17,21.90
2008,08,03,16,18,21.90
2008,08,03,16,19,21.90
2008,08,03,16,20,21.90
2008,08,03,16,21,21.90
2008,08,03,16,22,21.80
2008,08,03,16,23,21.80
2008,08,03,16,24,21.90
2008,08,03,16,25,22.00
2008,08,03,16,26,22.10
2008,08,03,16,27,22.20
2008,08,03,16,28,22.20
2008,08,03,16,29,22.20
2008,08,03,16,30,22.20
2008,08,03,16,31,22.10
2008,08,03,16,32,22.10
2008,08,03,16,33,22.20
2008,08,03,16,34,22.20
2008,08,03,16,35,22.20
2008,08,03,16,36,22.20
2008,08,03,16,37,22.10
2008,08,03,16,38,22.20
2008,08,03,16,39,22.20
2008,08,03,16,40,22.30
2008,08,03,16,41,22.40
2008,08,03,16,42,22.50
2008,08,03,16,43,22.50
2008,08,03,16,44,22.40
2008,08,03,16,45,22.40
2008,08,03,16,46,22.30
2008,08,03,16,47,22.30
2008,08,03,16,48,22.30
2008,08,03,16,49,22.30
2008,08,03,16,50,22.30
2008,08,03,16,51,22.40
2008,08,03,16,52,22.40
2008,08,03,16,53,22.50
2008,08,03,16,54,22.50
2008,08,03,16,55,22.50
2008,08,03,16,56,22.50
2008,08,03,16,57,22.60
2008,08,03,16,58,22.70
2008,08,03,16,59,22.80
2008,08,03,17,00,22.90
2008,08,03,17,01,23.00
2008,08,03,17,02,23.10
2008,08,03,17,03,23.10
2008,08,03,17,04,23.10
2008,08,03,17,05,22.90
2008,08,03,17,06,22.90
2008,08,03,17,07,22.80
2008,08,03,17,08,22.60
2008,08,03,17,09,22.60
2008,08,03,17,10,22.60
2008,08,03,17,11,22.60
2008,08,03,17,12,22.60
2008,08,03,17,13,22.50
2008,08,03,17,14,22.30
2008,08,03,17,15,22.20
2008,08,03,17,16,22.20
2008,08,03,17,17,22.10
2008,08,03,17,18,22.10
2008,08,03,17,19,22.20
2008,08,03,17,20,22.30
2008,08,03,17,21,22.30
2008,08,03,17,22,22.30
2008,08,03,17,23,22.40
2008,08,03,17,24,22.50
2008,08,03,17,25,22.60
2008,08,03,17,26,22.60
2008,08,03,17,27,22.70
2008,08,03,17,28,22.90
2008,08,03,17,29,22.90
2008,08,03,17,30,22.90
2008,08,03,17,31,22.90
2008,08,03,17,32,22.80
2008,08,03,17,33,22.70
2008,08,03,17,34,22.70
2008,08,03,17,35,22.60
2008,08,03,17,36,22.60
2008,08,03,17,37,22.60
2008,08,03,17,38,22.60
2008,08,03,17,39,22.70
2008,08,03,17,40,22.80
2008,08,03,17,41,22.80
2008,08,03,17,42,22.80
2008,08,03,17,43,22.80
2008,08,03,17,44,22.80
2008,08,03,17,45,22.80
2008,08,03,17,46,22.80
2008,08,03,17,47,22.90
2008,08,03,17,48,22.90
2008,08,03,17,49,22.90
2008,08,03,17,50,22.90
2008,08,03,17,51,22.90
2008,08,03,17,52,22.90
2008,08,03,17,53,22.80
2008,08,03,17,54,22.70
2008,08,03,17,55,22.60
2008,08,03,17,56,22.60
2008,08,03,17,57,22.60
2008,08,03,17,58,22.60
2008,08,03,17,59,22.70
2008,08,03,18,00,22.60
2008,08,03,18,01,22.60
2008,08,03,18,02,22.60
2008,08,03,18,03,22.60
2008,08,03,18,04,22.60
2008,08,03,18,05,22.60
2008,08,03,18,06,22.60
2008,08,03,18,07,22.70
2008,08,03,18,08,22.70